sat.trackr.live / text

‹ back to catalog

COSMOS 2572

NORAD 58435 · 2023-182A

PAYLOAD ACTIVE UNKNOWN

§ Identity

Operator
Country
CIS
Launch date
2023-11-25
Launch site
PLMSC
Launch vehicle
Mass (kg)
RCS (m²)

External: N2YO · Heavens-Above · Gunter

§ Orbital elements

Epoch: 2026-09-21T22:02:52.903104Z

Period
89.89 min
Inclination
96.6715°
Eccentricity
0.0002158
Mean motion
16.01876944 rev/d
Perigee alt
267.8 km
Apogee alt
270.7 km
Semi-major
6,647.4 km
B*
3.9655e-4
RAAN
7.6925°
Arg perigee
212.2054°
Mean anomaly
147.9096°
Rev number
16,384

§ Raw data

COSMOS 25721 58435U 23182A   26264.91866786  .00223165  22803-4  39655-3 0  99912 58435  96.6715   7.6925 0002158 212.2054 147.9096 16.01876944163846

JSON: /api/v1/satellites/58435 · /tle

For live sub-satellite position, see the globe view (requires WebGL).

§ Visibility from observer

Set your observer location to see the next 7 days of passes ≥ 10°. The values pass through the URL so the page stays shareable.

No JS? Fill the form by hand. The geolocation button needs JavaScript.

§ Radio — SatNOGS DB

ModeDescriptionDownlinkUplink
BPSK S-band telemetry 2.285 GHz

1 transmitter · refreshed weekly from db.satnogs.org